Ontario, CA

10:45 AM PST on February 07, 2016 (GMT -0800)
Ontario International

Weather History for KONT - August, 2013

Change the Weather History Date:

Wednesday, August 7, 2013

  Actual Average Record
Temperature  
Mean Temperature 74 °F 79 °F  
Max Temperature 88 °F 94 °F 104 °F (2012)
Min Temperature 59 °F 65 °F 57 °F (1999)
Degree Days  
Heating Degree Days 0 0  
Month to date heating degree days 0 0  
Since 1 June heating degree days 0 5  
Since 1 July heating degree days 0 0  
Cooling Degree Days 9 14  
Month to date cooling degree days 63 98  
Year to date cooling degree days 1085 882  
Since 1 June cooling degree days 794 716  
Growing Degree Days 23 (Base 50)    
Moisture  
Dew Point 52 °F    
Average Humidity 55    
Maximum Humidity 87    
Minimum Humidity 23    
Precipitation  
Precipitation 0.00 in 0.00 in 0.03 in (1968)
Month to date precipitation 0.00 0.03  
Year to date precipitation 2.83 10.50  
Since 1 July precipitation 0.04  
Snow  
Snow 0.00 in - - ()
Month to date snowfall 0.0  
Year to date snowfall 0.0  
Snow Depth 0.00 in    
Sea Level Pressure  
Sea Level Pressure 29.99 in    
Wind  
Wind Speed 6 mph (WSW)    
Max Wind Speed 15 mph    
Max Gust Speed 20 mph    
Visibility 9 miles    
Events      
T = Trace of Precipitation, MM = Missing Value Source: NWS Daily Summary

Daily Weather History Graph

Daily Weather History Graph

Search for Another Location

Airport or City:

Trip Planner

Search our weather history database for the weather conditions in past years. The results will help you decide how hot, cold, wet, or windy it might be!

Date:

Astronomy

Aug. 07, 2013 Rise Set
Actual Time 6:06 AM PDT 7:45 PM PDT
Civil Twilight 5:39 AM PDT 8:12 PM PDT
Nautical Twilight 5:06 AM PDT 8:44 PM PDT
Astronomical Twilight 4:32 AM PDT 9:18 PM PDT
Moon 6:54 AM PDT 8:01 PM PDT
Length of Visible Light 14h 32m
Length of Day
13h 39m
New Moon, 1% of the Moon is Illuminated
Aug 7
New Moon
Aug 14
First Quarter
Aug 20
Full
Aug 28
Last Quarter
Sep 5
New

Hourly Weather History & Observations

Time (PDT) Temp. Dew Point Humidity Pressure Visibility Wind Dir Wind Speed Gust Speed Precip Events Conditions
12:53 AM 64.0 °F 55.0 °F 73% 30.00 in 10.0 mi West 4.6 mph - N/A   Partly Cloudy
1:53 AM 63.0 °F 55.9 °F 78% 29.99 in 10.0 mi WSW 3.5 mph - N/A   Partly Cloudy
2:53 AM 62.1 °F 55.9 °F 80% 29.99 in 10.0 mi WSW 4.6 mph - N/A   Partly Cloudy
3:53 AM 61.0 °F 55.9 °F 83% 29.98 in 10.0 mi WSW 3.5 mph - N/A   Mostly Cloudy
4:53 AM 60.1 °F 55.9 °F 86% 29.98 in 7.0 mi WSW 3.5 mph - N/A   Mostly Cloudy
5:53 AM 60.1 °F 55.9 °F 86% 29.99 in 7.0 mi SW 3.5 mph - N/A   Mostly Cloudy
6:53 AM 59.0 °F 55.0 °F 87% 30.01 in 4.0 mi Calm Calm - N/A   Scattered Clouds
7:53 AM 62.1 °F 55.9 °F 80% 30.03 in 4.0 mi SW 3.5 mph - N/A   Haze
8:53 AM 64.0 °F 55.9 °F 75% 30.04 in 4.0 mi West 5.8 mph - N/A   Haze
9:53 AM 68.0 °F 55.0 °F 63% 30.05 in 5.0 mi SW 4.6 mph - N/A   Haze
10:53 AM 71.1 °F 55.0 °F 57% 30.04 in 7.0 mi West 4.6 mph - N/A   Partly Cloudy
11:53 AM 75.9 °F 51.1 °F 42% 30.02 in 10.0 mi West 5.8 mph - N/A   Partly Cloudy
12:53 PM 81.0 °F 48.9 °F 33% 30.01 in 10.0 mi West 6.9 mph - N/A   Partly Cloudy
1:53 PM 84.9 °F 48.9 °F 29% 29.98 in 10.0 mi WSW 6.9 mph - N/A   Partly Cloudy
2:53 PM 86.0 °F 45.0 °F 24% 29.96 in 10.0 mi West 9.2 mph 19.6 mph N/A   Partly Cloudy
3:53 PM 87.1 °F 46.0 °F 24% 29.94 in 10.0 mi West 10.4 mph - N/A   Clear
4:53 PM 84.0 °F 46.9 °F 27% 29.94 in 10.0 mi WSW 12.7 mph - N/A   Clear
5:53 PM 82.0 °F 46.9 °F 29% 29.94 in 10.0 mi WSW 12.7 mph - N/A   Clear
6:53 PM 79.0 °F 46.9 °F 32% 29.94 in 10.0 mi WSW 11.5 mph - N/A   Clear
7:53 PM 75.0 °F 48.0 °F 38% 29.95 in 10.0 mi West 9.2 mph - N/A   Clear
8:53 PM 72.0 °F 54.0 °F 53% 29.97 in 10.0 mi West 10.4 mph - N/A   Clear
9:53 PM 69.1 °F 55.0 °F 61% 29.98 in 10.0 mi West 9.2 mph - N/A   Clear
10:53 PM 68.0 °F 55.0 °F 63% 29.98 in 10.0 mi SSW 5.8 mph - N/A   Clear
11:53 PM 64.9 °F 55.0 °F 70% 29.97 in 10.0 mi SW 3.5 mph - N/A   Clear